Regional Weather Roundup
Issued by NWS

Home | Current Version | Previous Version | Graphics & Text | Print | Product List | Glossary On
Versions: 1 2 3 4 5 6 7 8 9 10 11 12 13 14 15 16 17 18 19 20 21 22 23 24 25 26 27 28 29 30 31 32 33 34 35 36 37 38 39 40 41 42 43 44 45 46 47 48 49 50
000
ASUS43 KMPX 280610
RWRMN
WEATHER ROUNDUP FOR MINNESOTA
NATIONAL WEATHER SERVICE TWIN CITIES/CHANHASSEN MN
100 AM CDT THU MAY 28 2015


NOTE: "FAIR" INDICATES FEW OR NO CLOUDS BELOW 12,000 FEET WITH NO
SIGNIFICANT WEATHER AND/OR OBSTRUCTIONS TO VISIBILITY. N/A MEANS
CURRENT SKY AND/OR WEATHER CONDITIONS ARE NOT AVAILABLE.

MNZ060>063-068>070-280700-
   Twin Cities Metro

CITY           SKY/WX    TMP DP  RH WIND       PRES   REMARKS
TWIN CITIES    CLEAR     68  56  65 E5        30.03S
6HR MIN TEMP:  67; 6HR MAX TEMP:  83;

ST PAUL        CLEAR     60  58  92 CALM      30.04R
CRYSTAL        CLEAR     61  56  83 CALM      30.02R
EDEN PRAIRIE   CLEAR     63  57  81 CALM      30.03R
6HR MIN TEMP:  60; 6HR MAX TEMP:  82;

$$
MNZ001>005-007-008-013>017-022>024-027-028-280700-
   Northwest Minnesota

CITY           SKY/WX    TMP DP  RH WIND       PRES   REMARKS
THIEF RVR FALL PTCLDY    61  48  63 E7        30.01F
PARK RAPIDS    PTCLDY    60  53  77 CALM      30.02S
MAHNOMEN       FAIR      60  55  84 E3        30.00S
$$
MNZ006-009>011-018-025>026-280700-
   North Central Minnesota

CITY           SKY/WX    TMP DP  RH WIND       PRES   REMARKS
BAUDETTE       CLEAR     50  45  83 E3        30.03F
INTL FALLS     CLEAR     54  46  74 E5        30.04S
6HR MIN TEMP:  48; 6HR MAX TEMP:  72;

GRAND RAPIDS   CLEAR     54  48  82 S3        30.05R
WALKER         FAIR      54  52  94 CALM      30.03S
$$
MNZ012-019>021-037-280700-
   Northeast Minnesota

CITY           SKY/WX    TMP DP  RH WIND       PRES   REMARKS
DULUTH         CLEAR     59  46  62 E10       30.07R
6HR MIN TEMP:  59; 6HR MAX TEMP:  79;

HIBBING        CLEAR     50  47  89 CALM      30.04S
GRAND MARAIS     N/A     46  39  76 NE12G21   30.12R
$$
MNZ029>031-032-039>041-046>048-054>057-064-280700-
   West Central Minnesota

CITY           SKY/WX    TMP DP  RH WIND       PRES   REMARKS
ALEXANDRIA     PTCLDY    64  53  67 SE5       30.03S
$$
MNZ033>034-036-042>043-049>051-058-059-280700-
   Central Minnesota

CITY           SKY/WX    TMP DP  RH WIND       PRES   REMARKS
ST CLOUD       CLEAR     57  55  93 CALM      30.02S
6HR MIN TEMP:  56; 6HR MAX TEMP:  80;

BRAINERD       PTCLDY    55  53  93 S3        30.03S
$$
MNZ037-044-045-052-053-280700-
   East Central Minnesota

CITY           SKY/WX    TMP DP  RH WIND       PRES   REMARKS
$$
MNZ071>073-080-081-089-090-097-098-280700-
   Southwest Minnesota

CITY           SKY/WX    TMP DP  RH WIND       PRES   REMARKS
MARSHALL       MOCLDY    64  48  55 SW9       30.01S
REDWOOD FALLS  PTCLDY    67  54  63 CALM      30.01S
WORTHINGTON    PTCLDY    64  48  55 S10       30.06S
$$
MNZ065>067-074>077-082>085-091>093-280700-
   South Central Minnesota

CITY           SKY/WX    TMP DP  RH WIND       PRES   REMARKS
MANKATO        CLEAR     66  54  63 SE8       30.05R
FAIRMONT       CLEAR     66  52  59 SW7       30.06R
$$
MNZ078>079-086>088-094>096-280700-
   Southeast Minnesota

CITY           SKY/WX    TMP DP  RH WIND       PRES   REMARKS
ROCHESTER      CLEAR     61  57  87 S8        30.09R
6HR MIN TEMP:  61; 6HR MAX TEMP:  78;

$$
ABBREVIATIONS USED IN REMARKS
   TC - TEMPERATURES IN CELSIUS
  WCI - WIND CHILL INDEX
   HX - HEAT INDEX
  VSB - VISIBILITY
$$



USA.gov is the U.S. government's official web portal to all federal, state and local government web resources and services.